Regional Weather Roundup
Issued by NWS

Home | Current Version | Previous Version | Text Only | Print | Product List | Glossary Off
Versions: 1 2 3 4 5 6 7 8 9 10 11 12 13 14 15 16 17 18 19 20 21 22 23 24 25 26 27 28 29 30 31 32 33 34 35 36 37 38 39 40 41 42 43 44 45 46 47 48 49 50

000
ASUS43 KLSX 281559
RWRMO

WEATHER SUMMARY FOR MISSOURI
NATIONAL WEATHER SERVICE SPRINGFIELD MO
1100 AM CDT THU MAY 28 2015

NOTE: "FAIR" INDICATES FEW OR NO CLOUDS BELOW 12,000 FEET WITH NO
       SIGNIFICANT WEATHER AND/OR OBSTRUCTIONS TO VISIBILITY.
       CURRENT SKY AND/OR WEATHER CONDITIONS ARE NOT AVAILABLE FOR
       CHILLICOTHE AND FARMINGTON.

MOZ001>031-035>038-043-044-053-054-281700-
...NORTHERN AND WESTERN MISSOURI...

CITY           SKY/WX    TMP DP  RH WIND       PRES   REMARKS
KANSAS CTY INT CLOUDY    67  64  90 E7        30.07S
KANSAS C DTWN  CLOUDY    67  62  84 E6        30.07S
LEE`S SUMMIT   CLOUDY    66  63  90 E3        30.09S
ST JOSEPH      CLOUDY    67  64  90 SE7       30.07R
KIRKSVILLE     CLOUDY    73  61  65 SE14      30.13F

$$
MOZ066>068-077>081-088>096-101>105-281700-
...SOUTHWEST MISSOURI...

CITY           SKY/WX    TMP DP  RH WIND       PRES   REMARKS
SPRINGFIELD    CLOUDY    74  68  81 SE12      30.12S
JOPLIN         CLOUDY    72  67  84 CALM      30.10R

$$
MOZ032>034-039>042-045>050-055>058-069>072-281700-
...CENTRAL MISSOURI...

CITY           SKY/WX    TMP DP  RH WIND       PRES   REMARKS
COLUMBIA       MOSUNNY   76  66  71 SE10      30.12S
JEFFERSON CITY PTSUNNY   77  66  68 SE12      30.11S
ROLLA          CLOUDY    74  68  81 SE7       30.13R
SEDALIA        MOSUNNY   76  67  73 VRB5      30.11S
OSAGE BEACH    CLOUDY    75  66  73 S7        30.12R

$$
MOZ051-052-059>065-281700-
...EAST CENTRAL MISSOURI...

CITY           SKY/WX    TMP DP  RH WIND       PRES   REMARKS
ST LOUIS INTL  PTSUNNY   80  65  59 E9        30.14S
SPIRIT OF STL  MOSUNNY   76  68  76 CALM      30.13S
ST CHARLES     MOSUNNY   79  62  56 SE10      30.13S

$$
MOZ072>076-082>087-097>100-106>115-281700-
...SOUTH CENTRAL AND SOUTHEAST MISSOURI...

CITY           SKY/WX    TMP DP  RH WIND       PRES   REMARKS
CAPE GIRARDEAU MOSUNNY   77  67  71 SE8       30.14F
FARMINGTON     MOSUNNY   75  66  73 S10       30.19R
POPLAR BLUFF   CLOUDY    74  67  78 E8        30.15R
WEST PLAINS    CLOUDY    71  66  84 S6        30.19R

$$


USA.gov is the U.S. government's official web portal to all federal, state and local government web resources and services.